CAPE
0 38 6 212 36 0 0 15 14 0 0 0 5 139 96 193 9 0 95 185 288 594 1120 1692 1711 1940 1936 1935 1969 1754 1760 1585 1091 869 832 1514 1491 1399 1401 1389 1228 1375 1245 1263 1145 1098 1172 1327 943
0 40 29 126 13 0 3 32 7 1 31 15 183 161 241 107 283 97 83 359 420 725 1386 1356 1420 1923 1895 1872 1872 1736 1865 1392 1455 1785 1407 1625 1824 1691 1539 1486 1429 1436 1461 1439 1301 1286 1418 1458 1367
0 11 29 31 46 0 11 21 15 24 35 129 233 292 291 180 117 78 261 510 612 1136 1552 1520 1615 2000 1924 1967 1913 1809 1558 1525 1759 1893 1969 1913 1881 1745 1616 1535 1559 1536 1428 1128 1192 1401 1296 1649 1605
3 1 5 36 20 82 3 10 47 41 103 160 200 96 194 234 92 281 622 636 687 1143 1492 1969 1997 2088 1994 1820 1666 1226 1786 1839 1898 1872 1665 1646 1508 1118 974 1355 1313 1586 1535 847 1012 909 1039 1366 1612
4 0 23 40 63 33 0 26 28 41 115 152 122 45 80 332 325 431 696 812 735 894 1435 1868 1945 2132 2057 1781 1918 1801 1674 1852 1885 1982 1820 1930 1673 1656 1576 1434 1279 1401 1701 1600 1439 1297 1089 1783 1788
1 0 8 15 54 31 4 22 42 58 103 102 47 93 232 265 179 449 697 603 834 1143 1490 1467 1921 2012 1991 1825 1839 1947 1884 1836 1801 1202 1304 1588 1533 1561 1681 1616 1345 1191 1332 1385 1434 1267 1349 1377 1798
1 0 1 17 24 17 40 27 35 64 79 81 112 96 169 193 264 406 542 865 1113 1393 1518 1573 1550 1586 1961 1938 1932 1922 1957 1663 1769 1650 1804 1742 1841 1768 1673 1214 1117 1054 1044 1160 1136 984 1115 1575 1745
36 0 8 15 11 20 71 86 28 52 65 91 93 43 118 89 140 354 599 777 739 844 1064 1388 1507 1493 1681 1609 1861 1900 1671 1252 1834 1776 2105 1953 1912 1686 1757 1643 1408 1036 840 915 1008 1064 1168 1370 1635
142 5 22 20 42 16 70 56 61 85 66 18 108 90 101 70 128 335 212 111 526 910 746 1084 1264 1395 1531 1161 1217 1366 1070 1656 1762 1792 1977 1686 1603 1739 1590 1858 1652 1458 1230 1104 992 948 971 808 995
42 35 41 21 42 33 24 97 47 76 45 29 66 152 115 101 222 72 0 116 664 888 769 927 939 1099 1285 1131 414 588 882 1040 1210 1233 1270 1284 1243 1377 1642 1849 1840 1876 1460 784 980 1186 936 537 517
63 61 57 5 31 23 19 142 37 55 24 2 3 110 115 163 115 0 0 69 259 647 790 1089 959 1245 884 795 433 454 661 754 853 778 886 829 798 1061 1028 1000 829 854 949 331 107 128 448 641 505
37 372 25 0 84 48 43 104 33 12 14 7 31 118 130 125 65 12 2 68 201 470 735 976 858 800 844 552 407 387 492 458 320 348 549 548 557 553 601 605 617 285 362 237 284 141 183 275 417
0 133 67 41 22 48 62 35 65 81 94 92 126 119 103 76 97 101 123 200 269 329 597 713 513 591 530 330 282 96 122 107 45 62 302 281 269 261 340 491 167 85 293 356 420 405 551 640 254
123 117 69 56 63 60 54 18 20 65 78 95 76 89 101 105 89 171 184 161 296 388 394 506 281 469 497 373 155 35 20 20 8 13 138 194 218 264 425 345 149 387 424 564 697 856 682 631 95
191 87 58 56 34 17 15 14 0 51 102 106 126 107 137 172 142 146 124 102 237 265 389 315 335 372 169 130 101 8 0 0 0 8 49 135 327 538 260 274 452 676 796 749 800 724 776 642 38
75 89 46 43 31 11 9 4 5 56 58 97 153 106 125 175 163 143 32 102 149 172 279 355 379 350 227 1 0 0 0 0 0 0 55 175 559 496 526 469 721 873 609 1019 1050 858 682 358 249
0 10 70 38 1 20 16 7 1 19 51 126 134 90 67 97 153 137 38 105 113 145 229 305 362 399 303 61 0 0 0 0 0 3 190 530 764 749 776 567 669 516 723 571 936 986 399 259 155
0 0 38 45 1 0 5 13 9 25 55 91 124 69 41 50 140 141 71 86 110 119 156 193 348 364 312 247 110 0 20 36 24 200 514 667 771 886 821 496 320 547 799 1295 1210 616 298 330 248
0 12 32 3 0 0 0 15 9 28 21 19 16 1 19 37 111 119 109 79 104 69 98 148 187 202 247 250 159 136 243 288 304 392 627 585 703 502 258 175 120 524 831 1335 1417 703 532 556 659
30 89 69 33 11 1 0 0 2 5 33 25 23 2 0 53 70 112 79 65 77 85 70 70 109 126 147 154 187 214 272 368 559 720 648 597 720 546 386 258 0 527 639 1259 1296 904 687 288 493
20 33 66 8 24 30 32 0 2 7 3 19 14 14 6 10 19 94 69 53 28 58 44 48 36 7 91 188 241 210 312 434 675 781 732 727 776 718 500 96 0 271 341 920 1187 1042 824 571 382
7 152 52 37 17 7 14 0 0 0 0 12 19 8 3 13 58 101 69 48 29 19 0 0 53 48 138 213 194 141 149 252 318 639 567 734 789 761 658 137 6 32 330 785 1054 587 634 539 576
9 193 137 87 7 3 23 2 0 0 0 0 21 6 0 0 6 67 59 62 35 0 0 0 0 7 124 175 184 125 93 160 189 272 422 526 700 748 630 443 145 5 342 848 1119 224 400 455 393
309 228 145 57 33 0 4 0 0 0 0 0 0 0 0 0 22 53 68 71 54 0 0 0 0 0 91 137 177 192 137 157 211 184 271 469 520 628 605 688 463 12 192 824 1013 406 56 437 597
202 28 5 8 5 0 12 0 0 0 0 0 0 0 0 0 1 32 36 44 37 6 0 0 0 0 108 91 122 128 146 167 160 152 228 350 389 488 572 624 610 438 288 763 971 754 129 0 599
314 66 5 0 0 9 27 0 0 0 0 0 17 0 0 0 0 2 25 48 45 12 0 0 0 0 83 74 77 96 150 165 153 130 219 273 375 429 521 639 658 617 337 682 962 854 763 721 771
421 160 4 7 30 24 38 22 9 1 4 0 0 5 0 2 2 1 17 43 69 16 32 30 0 2 27 34 72 74 86 122 129 152 262 350 316 361 387 451 614 578 315 529 735 847 729 754 840
537 251 139 72 42 7 34 20 0 0 0 0 1 1 6 7 21 26 23 31 72 90 36 32 25 0 29 72 85 135 106 77 90 158 209 304 299 213 321 314 473 518 556 655 582 772 808 531 550
245 152 0 24 32 32 35 0 25 11 0 0 0 0 2 6 3 14 33 31 71 107 83 45 54 5 7 82 65 63 104 80 67 61 189 300 230 204 251 397 429 466 457 508 584 585 666 621 534
0 1 0 0 0 0 2 0 55 30 16 4 4 6 0 17 27 31 51 28 54 86 105 87 85 71 63 28 69 52 79 134 166 79 109 266 257 218 213 279 314 308 389 382 519 678 746 547 358
CIN
0 -235 -151 -168 -119 0 0 -23 -67 0 0 -5 -144 -82 -89 -126 -22 0 -183 -148 -105 -61 -15 -1 -1 0 0 0 0 0 0 0 0 -2 -1 0 0 0 -1 0 0 -1 0 0 -1 0 0 0 -6
0 -247 -284 -197 -78 0 -16 -44 -62 -14 -132 -157 -112 -98 -89 -110 -140 -211 -185 -125 -108 -69 -7 -8 -4 0 0 0 0 0 0 0 0 0 0 0 0 0 0 0 0 0 0 -1 0 0 0 0 -1
0 -203 -148 -126 -71 0 -45 -54 -85 -103 -130 -96 -102 -98 -104 -141 -202 -212 -167 -118 -93 -37 -4 -3 -2 0 0 0 0 0 0 0 0 0 0 0 0 0 0 0 0 0 -1 -3 -4 0 0 0 0
-227 -36 -221 -54 -43 -57 -33 -69 -78 -103 -97 -85 -105 -108 -116 -122 -179 -152 -112 -102 -89 -36 -7 0 0 0 0 0 -1 -6 0 0 0 0 0 0 0 -1 -3 0 -2 0 0 -15 -7 -15 -9 -6 -2
-358 0 -47 -52 -35 -63 0 -79 -70 -76 -103 -98 -101 -131 -134 -69 -111 -131 -94 -74 -90 -69 -10 0 0 0 0 0 0 0 0 0 0 0 0 0 0 0 0 0 0 0 0 0 -5 -6 -3 -1 0
-84 0 -45 -36 -50 -69 -70 -67 -62 -62 -92 -103 -121 -106 -62 -81 -111 -113 -83 -96 -64 -40 -4 -3 0 0 0 0 0 0 0 0 0 -11 -19 -1 -1 0 -2 0 0 -1 0 0 -3 -14 -14 -10 -2
-46 0 -30 -23 -45 -32 -65 -50 -39 -69 -88 -92 -118 -94 -67 -71 -92 -111 -87 -52 -20 -1 -1 -1 -2 0 0 0 0 0 0 -3 0 -1 0 -1 0 -2 -1 0 -3 -4 -6 -7 -17 -29 -25 -7 -3
-97 0 -31 -35 -14 -37 -54 -43 -78 -76 -84 -101 -96 -130 -83 -136 -129 -89 -59 -33 -32 -17 -8 -3 -3 -2 -1 -2 0 0 -4 -8 0 -3 0 0 -1 0 0 -1 -1 -11 -23 -25 -25 -30 -27 -25 -15
-73 -43 -35 -38 -30 -34 -56 -24 -75 -73 -91 -69 -59 -103 -107 -164 -115 -69 -110 -128 -37 -5 -28 -5 -3 -3 -3 -11 -6 -6 -13 -5 -2 -4 -1 -6 -7 -2 -2 0 0 -7 -21 -28 -30 -32 -35 -52 -40
-52 -35 -24 -70 -45 -46 -65 -13 -66 -78 -80 -73 -107 -83 -113 -118 -85 -87 0 -114 -21 -6 -20 -7 -22 -18 -5 -10 -67 -46 -15 -28 -34 -33 -25 -25 -28 -22 -13 -2 -5 -5 -29 -32 -35 -32 -48 -83 -103
-55 -38 -71 -109 -68 -65 -85 -34 -50 -83 -78 -11 -7 -102 -102 -86 -98 0 0 -104 -71 -22 -4 -2 -7 -6 -24 -25 -67 -60 -52 -61 -58 -74 -68 -72 -68 -59 -60 -56 -67 -66 -60 -83 -134 -122 -85 -81 -115
-38 -7 -45 -8 -47 -49 -23 -19 -31 -48 -74 -64 -84 -123 -105 -93 -104 -104 -38 -97 -70 -38 -13 -3 -12 -23 -30 -36 -58 -79 -65 -84 -103 -117 -100 -83 -78 -84 -84 -83 -94 -102 -108 -89 -90 -132 -136 -138 -151
0 -15 -63 -104 -54 -26 -17 -24 -54 -22 -46 -67 -85 -99 -94 -118 -96 -78 -92 -76 -63 -40 -20 -25 -56 -40 -51 -48 -69 -111 -105 -111 -153 -158 -116 -116 -102 -93 -95 -96 -129 -148 -111 -97 -87 -92 -93 -99 -162
-60 -47 -63 -69 -63 -45 -13 -33 -74 -15 -44 -54 -88 -93 -94 -100 -95 -99 -94 -77 -52 -46 -46 -55 -76 -56 -55 -57 -81 -115 -142 -149 -126 -109 -131 -121 -110 -88 -82 -88 -100 -103 -108 -102 -96 -72 -78 -84 -166
-47 -39 -44 -40 -41 -57 -31 -14 0 -45 -15 -38 -62 -84 -83 -77 -92 -92 -97 -88 -67 -60 -49 -74 -71 -71 -81 -77 -67 -51 0 0 0 -110 -147 -126 -103 -77 -88 -83 -83 -82 -92 -92 -88 -69 -92 -99 -187
-33 -25 -18 -30 -37 -28 -15 -8 -35 -27 -44 -28 -45 -61 -72 -75 -81 -87 -100 -99 -93 -69 -58 -71 -60 -68 -87 -18 0 0 0 0 0 0 -120 -114 -85 -89 -75 -76 -84 -85 -101 -86 -74 -93 -90 -112 -139
0 -16 -6 -27 -4 -17 -9 -7 -10 -21 -66 -43 -38 -58 -74 -74 -65 -85 -94 -93 -92 -85 -71 -64 -67 -57 -68 -97 0 0 0 0 0 -48 -97 -70 -62 -67 -68 -78 -86 -106 -86 -85 -83 -90 -117 -118 -154
0 0 -35 -24 -55 0 -15 -2 -11 -11 -15 -53 -50 -64 -78 -77 -78 -90 -91 -98 -88 -82 -70 -67 -75 -61 -66 -78 -97 0 -114 -136 -110 -90 -63 -50 -55 -57 -69 -76 -100 -106 -66 -52 -75 -80 -143 -141 -138
0 -74 -56 -38 0 0 0 -8 -21 -26 -31 -14 -52 -24 -74 -79 -78 -88 -92 -92 -83 -80 -68 -65 -67 -86 -70 -62 -58 -63 -44 -53 -66 -63 -49 -47 -52 -74 -91 -104 -130 -113 -72 -53 -68 -100 -111 -99 -129
-73 -51 -49 -45 -74 -17 0 0 -18 -45 -49 -60 -40 -46 0 -91 -74 -80 -89 -96 -89 -91 -85 -75 -81 -94 -70 -52 -59 -60 -53 -59 -50 -45 -54 -60 -55 -72 -67 -89 0 -95 -80 -52 -56 -63 -82 -158 -190
-69 -54 -35 -22 -64 -80 -41 0 -28 -42 -40 -51 -42 -84 -54 -84 -88 -101 -99 -113 -113 -96 -98 -90 -99 -47 -80 -55 -68 -70 -67 -62 -47 -42 -40 -42 -50 -59 -65 -94 0 -98 -107 -48 -60 -69 -59 -62 -168
-29 -56 -55 -23 -34 -18 -20 -13 0 0 0 -43 -35 -39 -44 -76 -102 -110 -109 -128 -123 -122 0 0 -89 -96 -72 -72 -47 -34 -28 -21 -35 -31 -38 -38 -43 -49 -62 -100 -14 -140 -94 -56 -63 -94 -101 -96 -62
-38 -63 -42 -29 -58 -20 -8 -5 0 0 0 0 -45 -41 0 0 -113 -120 -120 -130 -107 0 0 0 0 -58 -66 -55 -44 -42 -47 -41 -48 -50 -30 -35 -38 -49 -51 -71 -105 -26 -93 -51 -58 -109 -111 -133 -122
-108 -71 -54 -53 -40 0 -38 0 0 0 0 0 0 -40 0 0 -141 -115 -129 -135 -134 0 0 0 0 0 -76 -66 -52 -43 -52 -51 -51 -59 -51 -39 -36 -42 -52 -56 -66 -26 -99 -54 -50 -91 -108 -112 -121
-83 -56 -54 -8 -18 -28 -80 0 0 0 0 0 0 0 0 0 -7 -100 -119 -127 -132 -66 0 0 0 0 -75 -83 -72 -71 -51 -50 -50 -57 -47 -45 -38 -33 -30 -43 -45 -59 -69 -57 -58 -68 -115 0 -81
-114 -45 -34 0 0 -25 -63 -15 0 0 0 0 -73 0 0 -20 0 -56 -137 -150 -134 -133 0 0 0 0 -85 -88 -80 -86 -83 -67 -58 -61 -52 -47 -46 -38 -32 -34 -37 -46 -71 -48 -48 -46 -59 -81 -70
-119 -62 -51 -3 -140 -59 -82 -109 -162 -55 -238 -6 0 -60 0 -142 -194 -66 -160 -155 -135 -132 -128 -139 0 -20 -129 -99 -92 -84 -83 -95 -77 -69 -62 -52 -58 -60 -51 -46 -33 -35 -64 -54 -51 -34 -38 -45 -57
-71 -102 -25 -52 -55 -13 -63 -65 0 0 0 0 -87 -91 -90 -101 -164 -168 -160 -170 -150 -140 -150 -141 -142 0 -131 -118 -96 -69 -75 -92 -92 -80 -72 -63 -60 -70 -69 -66 -55 -42 -43 -37 -45 -32 -32 -46 -49
-66 -59 0 -84 -69 -31 -28 0 -244 -312 0 -34 0 0 -57 -128 -92 -160 -186 -177 -172 -142 -151 -140 -139 -66 -32 -101 -100 -98 -87 -83 -111 -92 -74 -69 -76 -76 -67 -64 -61 -56 -45 -37 -27 -31 -27 -30 -33
-5 -3 0 -2 0 -1 -64 0 -290 -320 -300 -277 -262 -239 0 -91 -95 -126 -143 -190 -185 -147 -131 -142 -146 -148 -132 -118 -109 -107 -86 -69 -67 -94 -97 -74 -63 -80 -83 -74 -84 -73 -51 -39 -25 -15 -17 -22 -36
Wind_Speed
17 17 17 17 17 21 24 23 24 29 28 24 28 20 22 18 18 22 27 26 25 23 27 27 26 26 27 27 27 28 26 27 26 29 31 21 23 16 7 6 10 10 1 1 2 3 4 1 2
17 17 15 16 18 25 23 21 26 28 26 27 22 25 18 18 15 26 26 27 24 23 25 26 26 25 26 26 25 25 20 20 27 30 30 23 16 19 10 3 8 1 1 1 2 2 1 7 7
17 16 9 13 16 23 23 24 26 25 26 25 21 18 17 17 7 30 25 26 24 22 25 25 24 24 24 24 22 17 19 21 7 7 11 7 9 10 10 4 6 6 8 3 1 1 0 1 5
15 15 13 9 19 15 22 24 24 26 24 20 23 19 19 25 28 25 25 24 23 22 24 24 23 23 23 23 21 21 21 17 8 1 2 6 8 9 5 5 8 4 14 7 1 3 1 4 0
16 14 15 16 12 13 14 18 22 23 21 21 19 22 24 20 23 22 23 25 24 23 24 24 24 23 20 20 22 24 25 25 27 25 7 11 7 4 8 8 7 8 18 8 2 6 1 13 12
7 17 21 22 17 13 8 14 19 18 22 22 22 25 22 24 23 23 23 25 24 23 25 25 24 24 20 17 20 13 25 27 15 14 16 12 9 5 7 9 8 9 12 9 2 3 3 6 18
14 12 21 17 24 9 8 4 18 20 20 20 25 25 24 26 24 22 24 24 24 24 25 24 24 24 24 23 7 3 10 3 19 15 10 13 8 5 7 7 6 7 8 6 5 4 3 2 14
18 12 9 13 21 25 13 7 17 18 20 22 27 23 25 27 25 21 24 24 25 25 24 24 24 23 23 22 21 8 16 9 15 15 16 16 13 6 6 8 6 7 8 7 8 8 4 4 2
12 12 11 20 14 22 19 7 20 18 19 22 19 25 28 29 25 24 26 25 25 24 24 24 24 24 22 22 6 7 17 17 23 18 10 9 11 12 11 12 8 9 9 9 12 11 9 9 6
12 14 14 10 13 28 24 12 18 18 21 18 19 26 29 29 28 28 26 25 26 25 24 24 24 21 21 18 24 22 10 19 19 15 18 16 15 14 14 12 10 8 9 9 11 11 11 11 10
11 14 14 15 13 23 23 22 8 19 20 21 26 30 31 28 27 27 26 26 26 25 24 24 24 24 25 25 28 23 21 19 17 19 18 16 16 15 13 12 10 10 10 10 12 13 13 13 13
13 15 12 13 14 16 19 19 6 14 19 21 25 29 31 29 27 27 26 26 25 25 24 25 25 25 25 26 26 27 25 20 19 18 19 19 19 16 14 13 11 10 11 11 12 13 15 15 15
11 13 15 8 10 7 13 6 4 4 15 18 23 27 30 29 26 26 25 25 26 26 25 26 26 25 25 26 25 25 26 27 23 22 21 21 20 17 16 14 12 11 12 12 12 13 13 13 12
12 11 14 13 10 9 10 9 3 11 3 16 22 26 28 28 27 26 26 25 27 27 27 27 26 25 26 27 28 28 27 28 26 25 23 21 18 17 17 15 15 13 13 14 14 14 14 12 11
8 10 13 15 15 14 11 8 19 22 9 18 19 24 26 28 27 26 25 26 28 27 28 28 27 26 26 26 28 29 29 27 28 26 24 22 17 17 16 14 14 13 13 14 15 16 17 13 10
12 13 16 17 15 13 16 22 14 25 19 13 19 21 26 29 27 25 25 26 27 28 29 28 27 27 26 27 29 29 29 28 27 25 23 21 20 20 17 15 11 11 12 13 14 14 17 15 12
14 15 16 17 16 14 17 19 10 7 30 19 17 20 25 30 28 26 25 26 27 28 29 28 29 28 29 29 28 27 27 27 26 24 23 23 21 20 20 16 13 12 12 12 12 13 16 18 15
15 15 16 17 17 16 18 14 13 24 31 16 15 19 22 29 30 28 26 26 28 28 28 29 29 29 30 29 27 25 23 24 24 25 24 23 22 18 21 21 17 14 12 11 12 13 13 16 17
12 13 12 13 15 18 19 18 15 19 18 17 17 15 25 28 31 29 27 27 28 28 28 29 30 31 31 30 29 27 27 25 25 24 23 23 22 21 21 21 20 16 14 14 14 15 13 13 13
13 11 13 15 17 19 20 20 19 27 26 24 27 17 28 27 26 29 26 28 29 29 29 30 31 31 32 30 28 25 26 25 24 23 23 24 23 23 23 22 21 20 17 16 13 15 16 13 13
19 16 13 18 17 20 21 23 22 25 21 37 35 29 32 27 26 28 26 29 29 31 30 29 31 32 32 30 28 24 22 21 23 23 23 24 24 22 22 21 22 20 21 19 15 14 17 19 13
22 19 16 16 18 22 20 24 25 21 19 36 39 30 29 27 25 28 26 30 30 31 32 29 29 31 32 31 30 29 29 26 24 25 23 23 23 22 20 20 22 22 20 20 17 16 15 18 18
27 20 18 17 17 21 22 24 23 19 33 41 38 33 27 14 16 30 29 31 32 31 31 32 30 30 31 31 31 30 29 26 24 24 24 24 24 23 21 20 22 23 23 22 20 18 15 15 18
13 16 17 18 20 21 23 23 24 19 28 39 29 17 24 14 16 21 31 36 34 33 33 31 31 32 29 30 31 30 29 28 25 25 25 24 23 23 23 22 22 23 23 23 23 18 16 14 15
18 18 20 21 23 24 17 21 27 23 20 15 26 18 18 18 16 16 17 29 26 32 33 32 31 30 30 28 27 28 29 29 27 27 26 25 25 24 24 24 24 23 23 23 24 22 19 16 18
15 19 22 23 20 22 18 23 21 21 7 9 21 24 20 18 16 19 19 16 23 25 33 33 30 30 30 29 27 26 18 25 28 27 26 26 26 25 25 25 25 24 24 24 22 21 21 21 21
21 24 20 19 18 20 19 21 20 22 10 7 9 27 26 20 17 19 18 14 28 16 24 29 29 33 30 28 27 28 21 11 21 27 27 26 26 26 25 25 24 24 23 23 23 24 25 23 23
17 17 22 22 23 23 20 20 19 22 17 5 2 18 27 26 20 21 20 17 16 14 11 13 23 26 28 23 22 22 31 23 12 22 28 18 17 26 26 26 26 24 25 25 11 14 20 21 25
20 22 21 19 21 20 20 17 21 24 22 8 10 30 25 28 29 23 21 21 18 19 16 11 25 21 22 18 12 6 21 16 27 18 19 20 22 4 25 28 27 22 17 14 18 18 3 6 4
20 21 23 26 25 19 19 21 20 21 19 22 25 9 7 19 26 31 25 23 20 21 21 14 15 14 24 18 12 11 7 4 11 25 29 12 21 28 14 16 14 4 8 4 7 10 9 3 13
Wind_Direction
106 89 94 138 158 136 110 121 123 106 120 128 120 134 116 150 149 127 124 109 99 96 117 126 116 113 119 117 117 118 89 92 83 98 124 158 155 170 181 177 175 176 79 97 160 177 176 84 117
94 94 130 174 169 111 122 138 112 117 131 107 116 108 144 142 168 107 107 114 102 95 109 117 116 107 114 104 96 89 70 69 92 125 126 157 172 163 183 194 182 192 139 87 53 44 197 183 177
80 95 130 238 200 122 114 125 114 111 104 127 125 147 148 150 87 122 122 109 101 97 109 117 109 104 100 103 84 62 72 80 35 204 193 205 195 191 181 202 189 186 183 183 173 10 327 208 174
79 178 204 252 182 197 137 107 98 105 112 147 103 133 139 126 127 127 104 104 101 100 110 110 107 103 102 103 84 82 81 69 41 303 271 215 202 199 214 209 195 201 175 188 206 20 21 188 168
102 176 208 209 230 222 61 74 99 111 125 122 151 122 133 156 104 97 100 110 110 107 123 124 118 113 88 89 97 104 107 102 117 158 208 195 209 227 200 198 206 199 166 196 273 2 205 169 169
232 121 135 162 209 224 236 51 77 67 102 119 104 109 146 128 104 105 103 114 115 112 135 143 129 122 99 84 96 71 115 143 141 159 162 203 210 228 210 197 204 202 190 194 277 344 188 176 153
45 357 135 190 114 50 294 21 73 88 98 119 132 121 128 142 113 105 110 114 118 121 129 137 135 131 135 116 53 282 226 11 172 196 210 198 213 229 212 211 215 212 207 212 216 217 220 227 170
156 10 312 239 120 145 241 48 102 85 102 98 121 127 127 141 115 100 114 119 142 147 138 127 136 125 127 120 109 242 214 220 198 196 193 189 196 221 218 208 218 213 213 214 211 202 232 226 278
177 279 21 125 97 170 210 62 103 93 86 118 147 132 128 122 112 110 124 136 153 150 145 138 139 132 120 133 45 259 207 199 174 188 212 210 200 195 198 194 209 207 212 209 198 196 200 201 213
322 280 298 67 46 177 189 176 103 79 101 80 74 101 115 118 121 128 134 138 147 144 151 146 141 109 107 93 132 186 228 188 185 191 182 188 191 191 192 194 200 205 209 218 208 205 200 201 202
358 312 22 106 75 134 146 205 42 98 101 106 110 122 127 120 127 134 138 145 142 148 155 148 141 135 138 124 140 182 194 199 195 184 187 190 191 194 196 197 206 206 211 219 211 208 201 198 198
320 320 3 64 74 106 126 209 41 90 172 106 113 121 132 130 125 135 138 147 149 151 150 148 152 149 145 151 167 164 182 202 196 197 189 186 184 194 205 206 217 221 216 225 217 209 197 195 192
324 323 324 39 61 314 264 316 165 356 83 102 110 121 135 135 132 139 145 147 148 146 148 149 153 153 149 151 177 176 179 183 188 185 182 180 183 195 206 215 226 229 215 219 220 210 205 205 206
322 335 325 342 330 327 295 288 40 272 47 111 117 129 138 143 134 134 141 143 149 151 149 147 149 148 151 145 158 166 174 172 176 177 176 182 191 205 208 218 225 231 232 223 222 218 205 216 216
352 333 324 314 294 299 297 296 153 233 265 130 126 135 141 151 144 140 137 143 148 153 151 150 151 150 156 155 167 174 170 169 168 170 171 181 205 200 206 217 222 228 234 229 224 216 201 213 220
320 314 296 299 302 304 286 265 156 244 245 137 137 137 145 155 154 149 139 146 151 152 154 155 158 155 158 151 163 170 174 167 167 173 180 184 185 187 201 213 234 241 240 237 224 221 207 210 223
312 310 301 290 302 301 297 279 284 247 235 174 147 142 151 163 162 156 147 149 153 155 157 158 164 159 159 156 159 171 178 177 178 184 184 180 178 178 184 210 228 232 235 230 220 221 203 198 209
296 309 303 291 288 294 289 290 305 226 232 159 153 147 148 161 165 160 151 152 155 158 161 164 165 167 163 168 171 177 187 187 185 180 179 176 183 193 181 186 203 222 229 230 221 214 220 211 211
300 312 317 297 300 295 286 278 268 244 239 228 235 152 159 164 168 163 156 157 156 159 158 166 160 155 158 168 173 180 177 181 181 183 186 182 185 181 186 185 195 210 224 225 222 211 225 232 242
286 303 303 291 294 293 281 276 272 241 235 229 230 239 171 165 160 163 155 160 165 161 158 160 161 156 160 167 179 189 185 182 180 181 186 185 182 171 167 187 196 211 225 223 233 226 222 242 252
270 281 290 295 289 291 282 273 264 254 256 226 224 236 201 166 160 161 156 163 164 170 163 156 162 159 163 174 186 200 203 198 192 189 188 185 181 186 194 187 200 214 214 221 233 239 229 218 256
262 266 282 291 294 276 275 269 266 267 256 232 228 235 237 172 168 162 157 166 168 171 175 162 156 160 172 167 171 180 179 181 186 180 186 196 193 192 201 209 203 206 223 231 244 249 254 243 241
259 269 271 276 293 289 269 265 268 276 245 234 232 238 241 186 175 169 164 169 171 171 172 175 163 162 168 170 177 185 188 191 201 203 194 189 196 199 201 207 201 209 216 222 241 251 272 274 257
265 264 267 272 275 279 267 263 266 280 257 239 237 215 241 225 190 172 185 193 184 187 180 174 167 171 167 170 180 182 181 187 208 207 205 197 204 206 212 208 198 205 210 217 225 255 265 278 275
256 250 257 265 262 263 285 274 265 283 284 260 219 214 232 228 198 188 174 168 163 176 177 174 170 171 172 164 165 172 184 191 191 203 213 207 204 206 202 207 203 201 199 210 226 247 260 279 274
247 249 250 257 258 270 283 261 288 309 303 294 234 224 232 222 212 190 181 176 165 164 177 179 172 170 172 171 169 170 154 175 194 213 215 212 203 198 206 202 198 207 206 208 236 256 256 264 271
248 248 263 262 273 279 278 288 303 289 333 314 272 225 227 227 212 197 206 202 171 166 166 169 171 181 173 172 173 179 164 147 170 198 225 214 210 207 208 201 187 188 192 191 206 214 221 253 262
258 256 250 257 258 261 276 281 287 297 304 316 289 237 232 228 216 216 212 212 219 213 182 167 166 170 174 167 168 170 202 174 164 259 204 164 161 209 209 203 202 191 198 208 143 155 185 190 219
259 257 258 261 258 268 268 274 304 294 276 145 154 246 253 239 223 212 210 220 225 236 235 197 173 168 170 168 166 184 173 169 246 169 173 177 190 128 207 221 211 189 173 173 182 178 91 130 9
263 262 258 252 255 272 270 276 298 302 283 252 255 158 258 233 222 227 222 223 226 234 239 234 245 180 174 168 169 174 182 218 280 258 205 161 186 248 298 292 296 316 155 140 157 166 161 341 312